Motte Rimrock Reserve, California Weather observations

Data are for 10 minute period ending at time listed.
 Day   Time   Solar   Ave.   Ave.  Ave.  Vector  Max.   Baro.   Total    
  of    of     Rad.   Air    Rel.  Wind   Wind   Wind  Press.  Precip.   
Year   Day            Temp.  Hum.  Speed  Dir.   Gust                    
2016   (PST)  Kw/m2    F      %     mph   deg.    mph    mb.     in.     
-------------------------------------------------------------------------
 151   19:20   0.00   67.3    58   11.6   305    15.9   945.3    0.00 
 151   19:30   0.00   66.9    59   11.7   306    15.3   945.3    0.00 
 151   19:40   0.00   66.5    60   10.2   304    12.9   945.3    0.00 
 151   19:50   0.00   66.1    61    9.9   298    12.5   945.3    0.00 
 151   20:00   0.00   65.6    62    7.7   301    12.4   945.3    0.00 
 151   20:10   0.00   65.1    63    7.2   291     9.5   945.5    0.00 
 151   20:20   0.00   64.7    64    6.9   297     8.9   945.6    0.00 
 151   20:30   0.00   64.4    65    7.4   299     9.0   945.7    0.00 
 151   20:40   0.00   64.2    66    7.6   302    10.0   945.7    0.00 
 151   20:50   0.00   63.8    67    7.4   303    10.0   945.7    0.00 
 151   21:00   0.00   63.4    68    8.3   303    10.6   945.7    0.00 
 151   21:10   0.00   63.0    69    7.3   310     9.6   945.7    0.00 
 151   21:20   0.00   62.7    70    7.7   312     9.3   945.7    0.00 
 151   21:30   0.00   62.4    70    7.0   308     8.9   945.7    0.00 
 151   21:40   0.00   62.1    71    5.3   311     7.7   945.6    0.00 
 151   21:50   0.00   61.7    72    5.4   311     7.2   945.5    0.00 
 151   22:00   0.00   61.2    73    5.8   321     7.3   945.5    0.00 
 151   22:10   0.00   60.8    74    6.2   319     7.9   945.4    0.00 
 151   22:20   0.00   60.5    74    6.2   316     7.7   945.3    0.00 
 151   22:30   0.00   60.1    76    6.6   319     8.2   945.2    0.00 
 151   22:40   0.00   59.8    76    6.7   312     8.4   945.1    0.00 
 151   22:50   0.00   59.5    77    7.6   304     9.4   944.9    0.00 
 151   23:00   0.00   59.2    78    6.6   304     8.4   944.8    0.00 
 151   23:10   0.00   58.9    79    7.2   305     8.7   944.7    0.00 
 151   23:20   0.00   58.7    79    7.2   298     8.9   944.6    0.00 
 151   23:30   0.00   58.4    80    5.2   297     6.7   944.5    0.00 
 151   23:40   0.00   58.5    80    5.5   303     7.0   944.4    0.00 
 151   23:50   0.00   58.4    80    6.9   310     8.8   944.3    0.00 
 152    0:00   0.00   58.1    81    6.4   312     8.3   944.2    0.00 
 152    0:10   0.00   57.8    82    6.3   316     7.7   944.0    0.00 
 152    0:20   0.00   57.5    82    6.0   313     7.8   944.0    0.00 
 152    0:30   0.00   57.5    83    5.5   305     6.9   944.0    0.00 
 152    0:40   0.00   57.4    83    4.6   298     6.2   943.9    0.00 
 152    0:50   0.00   57.4    84    6.5   300     8.0   943.9    0.00 
 152    1:00   0.00   57.5    84    6.9   304     8.3   943.8    0.00 
 152    1:10   0.00   57.2    84    5.8   304     7.3   943.9    0.00 
 152    1:20   0.00   56.9    85    5.6   301     6.5   943.8    0.00 
 152    1:30   0.00   56.7    86    5.7   294     6.7   943.7    0.00 
 152    1:40   0.00   56.6    86    5.7   302     6.6   943.8    0.00 
 152    1:50   0.00   56.4    86    5.2   298     6.0   943.7    0.00 
 152    2:00   0.00   56.0    87    4.7   294     5.8   943.7    0.00 
 152    2:10   0.00   55.9    87    3.4   279     4.1   943.7    0.00 
 152    2:20   0.00   55.8    87    2.7   251     3.7   943.6    0.00 
 152    2:30   0.00   55.8    87    1.4   180     2.9   943.5    0.00 
 152    2:40   0.00   55.9    87    0.7   119     2.1   943.5    0.00 
 152    2:50   0.00   55.9    87    1.3    94     3.0   943.5    0.00 
 152    3:00   0.00   55.6    87    3.3    70     4.2   943.7    0.00 
 152    3:10   0.00   55.2    88    1.6    72     2.9   943.7    0.00 
 152    3:20   0.00   55.1    88    0.2   316     1.2   943.7    0.00 
 152    3:30   0.00   55.1    89    0.2   316     0.9   943.6    0.00 
 152    3:40   0.00   55.1    89    0.4   357     1.8   943.6    0.00 
 152    3:50   0.00   55.1    89    0.7    58     2.2   943.5    0.00 
 152    4:00   0.00   54.6    89    2.7    78     3.4   943.5    0.00 
 152    4:10   0.00   54.4    90    1.4    93     2.3   943.4    0.00 
 152    4:20   0.00   54.1    90    2.1   160     2.7   943.4    0.00 
 152    4:30   0.00   53.6    91    2.5   176     3.4   943.4    0.00 
 152    4:40   0.00   53.1    92    3.6   161     4.3   943.5    0.00 
 152    4:50   0.00   52.8    92    3.7   172     4.2   943.5    0.00 
 152    5:00   0.01   52.2    93    3.0   189     4.7   943.5    0.00 
 152    5:10   0.03   52.8    94    2.3   186     3.1   943.6    0.00 
 152    5:20   0.05   53.9    94    1.9   185     2.6   943.6    0.00 
 152    5:30   0.07   54.7    93    1.8   144     2.8   943.7    0.00 
 152    5:40   0.10   54.7    92    1.8    97     3.4   943.8    0.00 
 152    5:50   0.13   55.5    92    0.4   112     1.8   943.9    0.00 
 152    6:00   0.16   56.0    90    1.7   208     3.1   944.0    0.00 
 152    6:10   0.19   56.4    88    2.2   202     3.1   944.0    0.00 
 152    6:20   0.22   57.3    86    1.5   188     2.9   944.1    0.00 
 152    6:30   0.25   58.6    82    1.4   156     2.6   944.3    0.00 
 152    6:40   0.28   59.9    79    1.9   138     3.4   944.4    0.00 
 152    6:50   0.32   60.9    76    1.4   141     3.9   944.5    0.00 
 152    7:00   0.35   62.0    73    1.8   147     4.2   944.6    0.00 
 152    7:10   0.39   61.4    74    2.5   163     5.0   944.7    0.00 
 152    7:20   0.42   61.8    73    2.1   167     4.5   944.8    0.00 
 152    7:30   0.46   62.7    71    2.6   199     5.8   944.9    0.00 
 152    7:40   0.49   63.2    70    2.2   173     3.8   944.9    0.00 
 152    7:50   0.53   64.1    68    3.2   167     6.9   944.9    0.00 
 152    8:00   0.56   64.4    67    3.7   176     6.4   944.9    0.00 
 152    8:10   0.59   65.3    65    1.9   190     5.4   944.9    0.00 
 152    8:20   0.62   66.9    62    1.6   125     4.5   944.9    0.00 
 152    8:30   0.65   66.5    63    3.1   142     7.5   944.9    0.00 
 152    8:40   0.68   67.1    62    4.0   113     8.0   944.9    0.00 
 152    8:50   0.71   67.6    61    3.9    84     7.1   944.9    0.00 
 152    9:00   0.74   68.7    59    2.4    60     5.3   944.9    0.00 
 152    9:10   0.76   69.9    57    3.1   178     7.4   944.8    0.00 
 152    9:20   0.78   70.1    56    3.1   147     7.1   944.7    0.00 
 152    9:30   0.80   70.8    54    4.5   107     8.0   944.7    0.00 
 152    9:40   0.83   71.4    54    3.3   107     7.9   944.7    0.00 
 152    9:50   0.85   72.2    52    3.9   117     7.7   944.7    0.00 
 152   10:00   0.87   73.1    50    3.4   115     6.1   944.6    0.00 
 152   10:10   0.89   74.1    48    3.9    46     8.6   944.5    0.00 
 152   10:20   0.90   74.4    48    2.0    80     7.2   944.5    0.00 
 152   10:30   0.92   75.8    45    5.3    88     8.6   944.4    0.00 
 152   10:40   0.93   76.6    44    2.9    97     6.4   944.3    0.00 
 152   10:50   0.93   77.5    42    2.9    68     8.8   944.2    0.00 
 152   11:00   0.94   78.1    42    5.1   313    12.8   944.0    0.00 
 152   11:10   0.95   78.5    41    5.1   332    10.2   944.0    0.00 
 152   11:20   0.96   77.8    42    6.3   312    11.2   943.9    0.00 
 152   11:30   0.96   77.7    42    8.1   304    12.3   943.7    0.00 
 152   11:40   0.96   78.5    41    8.5   302    12.8   943.6    0.00 
 152   11:50   0.95   78.6    41    9.3   299    13.4   943.6    0.00 
 152   12:00   0.97   79.2    40    9.0   296    12.3   943.5    0.00 
 152   12:10   0.96   79.9    39    9.3   297    14.4   943.5    0.00 
 152   12:20   0.95   79.7    39   11.5   312    16.4   943.4    0.00 
 152   12:30   0.95   79.7    39   12.2   309    16.4   943.3    0.00 
 152   12:40   0.94   79.5    39   12.7   310    17.3   943.3    0.00 
 152   12:50   0.91   79.3    39   12.3   312    17.2   943.3    0.00 
 152   13:00   0.93   80.4    38   11.3   304    16.8   943.3    0.00 
 152   13:10   0.92   80.4    38   11.2   309    16.7   943.1    0.00 
 152   13:20   0.90   80.5    38   12.7   306    18.5   943.0    0.00 
 152   13:30   0.89   80.3    38   13.0   312    17.5   943.1    0.00 
 152   13:40   0.87   80.5    38   12.5   313    17.2   943.1    0.00 
 152   13:50   0.86   80.4    38   12.0   306    18.3   942.9    0.00 
 152   14:00   0.83   80.5    38   12.7   307    17.4   942.8    0.00 
 152   14:10   0.82   80.5    38   13.1   308    17.0   942.8    0.00 
 152   14:20   0.79   80.0    39   14.0   310    19.4   942.7    0.00 
 152   14:30   0.77   80.1    38   13.8   313    19.2   942.7    0.00 
 152   14:40   0.74   80.0    38   13.7   310    20.0   942.7    0.00 
 152   14:50   0.72   79.7    39   13.3   317    16.8   942.7    0.00 
 152   15:00   0.69   79.7    39   11.4   311    16.1   942.7    0.00 
 152   15:10   0.67   79.8    39   12.3   315    18.0   942.6    0.00 
 152   15:20   0.63   79.8    39   12.2   313    16.4   942.5    0.00 
 152   15:30   0.61   79.7    39   11.9   307    17.0   942.5    0.00 
 152   15:40   0.57   79.5    39   12.7   313    16.7   942.5    0.00 
 152   15:50   0.55   79.3    40   11.9   313    17.2   942.5    0.00 
 152   16:00   0.51   79.1    40   12.1   307    16.5   942.5    0.00 
 152   16:10   0.48   78.9    41   12.1   304    16.4   942.5    0.00 
 152   16:20   0.45   78.5    42   10.7   305    14.1   942.5    0.00 
 152   16:30   0.41   78.8    42   10.8   299    14.8   942.6    0.00 
 152   16:40   0.38   78.7    42   11.2   303    15.9   942.6    0.00 
 152   16:50   0.34   78.0    44   11.2   303    15.5   942.6    0.00 
 152   17:00   0.31   77.5    45   10.9   301    14.6   942.6    0.00 
 152   17:10   0.27   77.1    46   10.4   301    13.7   942.7    0.00 
 152   17:20   0.24   76.4    47   10.4   305    13.6   942.7    0.00 
 152   17:30   0.21   76.1    48   11.0   308    14.1   942.8    0.00 
 152   17:40   0.18   75.5    49   10.9   311    14.5   942.9    0.00 
 152   17:50   0.15   75.1    50   11.0   315    14.1   943.0    0.00 
 152   18:00   0.12   74.5    51   11.4   307    14.6   943.2    0.00 
 152   18:10   0.09   73.4    53   11.9   310    16.0   943.2    0.00 
 152   18:20   0.07   72.4    55   10.9   310    14.6   943.4    0.00 
 152   18:30   0.05   71.7    56    9.3   305    12.4   943.5    0.00 
 152   18:40   0.03   70.8    58   11.2   309    14.2   943.6    0.00 
 152   18:50   0.01   70.0    59   10.1   307    12.1   943.8    0.00 
 152   19:00   0.01   69.2    60   10.2   309    13.3   943.9    0.00 
 152   19:10   0.01   68.7    61   10.3   308    13.2   943.9    0.00 

Return to Motte Rimrock Reserve graphs page.


Western Regional Climate Center,wrcc@dri.edu